Time,TemperatureF,DewpointF,PressureIn,WindDirection,WindDirectionDegrees,WindSpeedMPH,WindSpeedGustMPH,Humidity,HourlyPrecipIn,Conditions,Clouds,dailyrainin,SoftwareType,DateUTC
2013-04-10 00:00:00,31.0,23.0,30.19,NE,39,3.0,5.0,72,0.00,,,0.00,Meteo,2013-04-10 05:00:00,
2013-04-10 00:05:00,31.0,23.0,30.19,North,11,2.0,4.0,73,0.00,,,0.00,Meteo,2013-04-10 05:05:00,
2013-04-10 00:10:00,31.0,23.0,30.19,North,359,2.0,5.0,73,0.00,,,0.00,Meteo,2013-04-10 05:10:00,
2013-04-10 00:15:00,31.0,24.0,30.19,ENE,63,1.0,3.0,74,0.00,,,0.00,Meteo,2013-04-10 05:15:00,
2013-04-10 00:20:00,31.0,23.0,30.20,NE,38,3.0,6.0,73,0.00,,,0.00,Meteo,2013-04-10 05:20:00,
2013-04-10 00:25:00,31.0,24.0,30.19,NNE,26,2.0,3.0,74,0.00,,,0.00,Meteo,2013-04-10 05:25:00,
2013-04-10 00:30:00,31.0,24.0,30.19,NNE,28,2.0,3.0,74,0.00,,,0.00,Meteo,2013-04-10 05:30:00,
2013-04-10 00:35:00,31.0,24.0,30.19,NNE,14,2.0,3.0,75,0.00,,,0.00,Meteo,2013-04-10 05:35:00,
2013-04-10 00:40:00,31.0,24.0,30.19,North,359,1.0,2.0,76,0.00,,,0.00,Meteo,2013-04-10 05:40:00,
2013-04-10 00:45:00,31.0,25.0,30.19,North,11,2.0,2.0,77,0.00,,,0.00,Meteo,2013-04-10 05:45:00,
2013-04-10 00:50:00,30.0,24.0,30.18,North,0,1.0,2.0,79,0.00,,,0.00,Meteo,2013-04-10 05:50:00,
2013-04-10 00:55:00,30.0,25.0,30.19,North,351,3.0,4.0,80,0.00,,,0.00,Meteo,2013-04-10 05:55:00,
2013-04-10 01:00:00,30.0,25.0,30.19,North,1,1.0,2.0,81,0.00,,,0.00,Meteo,2013-04-10 06:00:00,
2013-04-10 01:05:00,30.0,25.0,30.20,North,0,2.0,3.0,81,0.00,,,0.00,Meteo,2013-04-10 06:05:00,
2013-04-10 01:10:00,30.0,25.0,30.21,North,1,2.0,3.0,81,0.00,,,0.00,Meteo,2013-04-10 06:10:00,
2013-04-10 01:15:00,30.0,25.0,30.21,North,349,3.0,5.0,81,0.00,,,0.00,Meteo,2013-04-10 06:15:00,
2013-04-10 01:20:00,30.0,25.0,30.21,North,353,0.0,2.0,81,0.00,,,0.00,Meteo,2013-04-10 06:20:00,
2013-04-10 01:25:00,30.0,25.0,30.22,North,356,2.0,4.0,81,0.00,,,0.00,Meteo,2013-04-10 06:25:00,
2013-04-10 01:30:00,30.0,25.0,30.21,North,2,2.0,3.0,81,0.00,,,0.00,Meteo,2013-04-10 06:30:00,
2013-04-10 01:35:00,30.0,25.0,30.22,North,10,2.0,3.0,81,0.00,,,0.00,Meteo,2013-04-10 06:35:00,
2013-04-10 01:40:00,30.0,25.0,30.22,North,0,2.0,2.0,81,0.00,,,0.00,Meteo,2013-04-10 06:40:00,
2013-04-10 01:45:00,30.0,25.0,30.23,North,0,1.0,2.0,82,0.00,,,0.00,Meteo,2013-04-10 06:45:00,
2013-04-10 01:50:00,30.0,25.0,30.23,NNE,21,2.0,4.0,82,0.00,,,0.00,Meteo,2013-04-10 06:50:00,
2013-04-10 01:55:00,30.0,25.0,30.22,NNE,29,2.0,4.0,81,0.00,,,0.00,Meteo,2013-04-10 06:55:00,
2013-04-10 02:00:00,30.0,25.0,30.22,North,358,1.0,3.0,81,0.00,,,0.00,Meteo,2013-04-10 07:00:00,
2013-04-10 02:05:00,30.0,25.0,30.22,NE,50,1.0,2.0,81,0.00,,,0.00,Meteo,2013-04-10 07:05:00,
2013-04-10 02:10:00,30.0,25.0,30.23,North,350,3.0,5.0,80,0.00,,,0.00,Meteo,2013-04-10 07:10:00,
2013-04-10 02:15:00,30.0,25.0,30.23,NNE,12,1.0,2.0,80,0.00,,,0.00,Meteo,2013-04-10 07:15:00,
2013-04-10 02:20:00,30.0,25.0,30.23,NNE,23,2.0,4.0,80,0.00,,,0.00,Meteo,2013-04-10 07:20:00,
2013-04-10 02:26:00,30.0,24.0,30.22,NNE,22,2.0,3.0,79,0.00,,,0.00,Meteo,2013-04-10 07:26:00,
2013-04-10 02:31:00,30.0,24.0,30.22,NNE,25,2.0,3.0,79,0.00,,,0.00,Meteo,2013-04-10 07:31:00,
2013-04-10 02:36:00,30.0,24.0,30.22,NE,35,2.0,3.0,78,0.00,,,0.00,Meteo,2013-04-10 07:36:00,
2013-04-10 02:41:00,30.0,24.0,30.22,NNE,22,1.0,3.0,78,0.00,,,0.00,Meteo,2013-04-10 07:41:00,
2013-04-10 02:46:00,30.0,24.0,30.21,NE,38,0.0,2.0,78,0.00,,,0.00,Meteo,2013-04-10 07:46:00,
2013-04-10 02:51:00,30.0,24.0,30.21,NNE,27,1.0,3.0,78,0.00,,,0.00,Meteo,2013-04-10 07:51:00,
2013-04-10 02:56:00,30.0,24.0,30.22,North,6,1.0,2.0,78,0.00,,,0.00,Meteo,2013-04-10 07:56:00,
2013-04-10 03:01:00,30.0,24.0,30.22,North,6,2.0,4.0,78,0.00,,,0.00,Meteo,2013-04-10 08:01:00,
2013-04-10 03:06:00,30.0,24.0,30.22,NNE,13,2.0,3.0,78,0.00,,,0.00,Meteo,2013-04-10 08:06:00,
2013-04-10 03:11:00,30.0,24.0,30.22,North,355,2.0,5.0,78,0.00,,,0.00,Meteo,2013-04-10 08:11:00,
2013-04-10 03:16:00,30.0,24.0,30.21,NNE,16,1.0,2.0,78,0.00,,,0.00,Meteo,2013-04-10 08:16:00,
2013-04-10 03:21:00,30.0,24.0,30.21,North,0,1.0,2.0,78,0.00,,,0.00,Meteo,2013-04-10 08:21:00,
2013-04-10 03:26:00,30.0,24.0,30.21,NNE,20,2.0,3.0,78,0.00,,,0.00,Meteo,2013-04-10 08:26:00,
2013-04-10 03:31:00,30.0,24.0,30.20,NE,36,1.0,3.0,78,0.00,,,0.00,Meteo,2013-04-10 08:31:00,
2013-04-10 03:36:00,30.0,24.0,30.20,ENE,66,2.0,3.0,78,0.00,,,0.00,Meteo,2013-04-10 08:36:00,
2013-04-10 03:41:00,30.0,24.0,30.19,NNE,24,2.0,3.0,78,0.00,,,0.00,Meteo,2013-04-10 08:41:00,
2013-04-10 03:46:00,30.0,24.0,30.18,NNE,33,1.0,2.0,78,0.00,,,0.00,Meteo,2013-04-10 08:46:00,
2013-04-10 03:51:00,30.0,24.0,30.18,NE,48,1.0,2.0,78,0.00,,,0.00,Meteo,2013-04-10 08:51:00,
2013-04-10 03:56:00,30.0,24.0,30.17,NE,39,2.0,3.0,78,0.00,,,0.00,Meteo,2013-04-10 08:56:00,
2013-04-10 04:02:00,29.0,23.0,30.16,NE,47,2.0,4.0,78,0.00,,,0.00,Meteo,2013-04-10 09:02:00,
2013-04-10 04:07:00,29.0,24.0,30.16,NNE,28,1.0,2.0,80,0.00,,,0.00,Meteo,2013-04-10 09:07:00,
2013-04-10 04:12:00,29.0,24.0,30.16,NE,49,3.0,4.0,80,0.00,,,0.00,Meteo,2013-04-10 09:12:00,
2013-04-10 04:17:00,29.0,24.0,30.16,NNE,28,3.0,4.0,81,0.00,,,0.00,Meteo,2013-04-10 09:17:00,
2013-04-10 04:22:00,29.0,24.0,30.15,NNE,30,3.0,5.0,81,0.00,,,0.00,Meteo,2013-04-10 09:22:00,
2013-04-10 04:27:00,29.0,24.0,30.14,NNE,12,2.0,4.0,81,0.00,,,0.00,Meteo,2013-04-10 09:27:00,
2013-04-10 04:32:00,29.0,24.0,30.13,North,359,3.0,8.0,82,0.00,,,0.00,Meteo,2013-04-10 09:32:00,
2013-04-10 04:37:00,29.0,24.0,30.13,NNE,16,3.0,4.0,82,0.00,,,0.00,Meteo,2013-04-10 09:37:00,
2013-04-10 04:42:00,28.0,24.0,30.12,NNE,17,2.0,3.0,83,0.00,,,0.00,Meteo,2013-04-10 09:42:00,
2013-04-10 04:47:00,28.0,24.0,30.13,NNE,22,2.0,3.0,84,0.00,,,0.00,Meteo,2013-04-10 09:47:00,
2013-04-10 04:52:00,28.0,24.0,30.13,NE,44,2.0,3.0,84,0.00,,,0.00,Meteo,2013-04-10 09:52:00,
2013-04-10 04:58:00,28.0,24.0,30.15,North,3,1.0,3.0,84,0.00,,,0.00,Meteo,2013-04-10 09:58:00,
2013-04-10 05:03:00,28.0,24.0,30.17,North,6,2.0,3.0,85,0.00,,,0.00,Meteo,2013-04-10 10:03:00,
2013-04-10 05:08:00,28.0,24.0,30.17,NNE,27,2.0,3.0,85,0.00,,,0.00,Meteo,2013-04-10 10:08:00,
2013-04-10 05:13:00,28.0,24.0,30.15,NNE,27,2.0,3.0,84,0.00,,,0.00,Meteo,2013-04-10 10:13:00,
2013-04-10 05:18:00,28.0,24.0,30.15,NNE,15,2.0,3.0,85,0.00,,,0.00,Meteo,2013-04-10 10:18:00,
2013-04-10 05:23:00,28.0,24.0,30.15,NE,35,3.0,5.0,85,0.00,,,0.00,Meteo,2013-04-10 10:23:00,
2013-04-10 05:28:00,28.0,24.0,30.17,North,354,2.0,4.0,86,0.00,,,0.00,Meteo,2013-04-10 10:28:00,
2013-04-10 05:33:00,28.0,24.0,30.18,North,2,2.0,3.0,86,0.00,,,0.00,Meteo,2013-04-10 10:33:00,
2013-04-10 05:38:00,28.0,24.0,30.17,North,6,3.0,5.0,86,0.00,,,0.00,Meteo,2013-04-10 10:38:00,
2013-04-10 05:43:00,28.0,24.0,30.17,North,0,2.0,3.0,86,0.00,,,0.00,Meteo,2013-04-10 10:43:00,
2013-04-10 05:48:00,28.0,24.0,30.17,NNE,31,2.0,3.0,85,0.00,,,0.00,Meteo,2013-04-10 10:48:00,
2013-04-10 05:53:00,28.0,24.0,30.17,North,1,1.0,3.0,85,0.00,,,0.00,Meteo,2013-04-10 10:53:00,
2013-04-10 05:58:00,29.0,25.0,30.19,North,3,2.0,3.0,84,0.00,,,0.00,Meteo,2013-04-10 10:58:00,
2013-04-10 06:03:00,29.0,24.0,30.19,North,10,3.0,4.0,83,0.00,,,0.00,Meteo,2013-04-10 11:03:00,
2013-04-10 06:08:00,29.0,24.0,30.21,NNW,344,2.0,4.0,82,0.00,,,0.00,Meteo,2013-04-10 11:08:00,
2013-04-10 06:13:00,29.0,24.0,30.21,NNW,348,0.0,1.0,81,0.00,,,0.00,Meteo,2013-04-10 11:13:00,
2013-04-10 06:18:00,29.0,24.0,30.21,NE,51,1.0,2.0,81,0.00,,,0.00,Meteo,2013-04-10 11:18:00,
2013-04-10 06:24:00,29.0,24.0,30.21,ENE,72,0.0,1.0,80,0.00,,,0.00,Meteo,2013-04-10 11:24:00,
2013-04-10 06:29:00,29.0,24.0,30.21,ENE,57,1.0,2.0,80,0.00,,,0.00,Meteo,2013-04-10 11:29:00,
2013-04-10 06:34:00,29.0,24.0,30.21,NNE,33,1.0,2.0,80,0.00,,,0.00,Meteo,2013-04-10 11:34:00,
2013-04-10 06:39:00,29.0,23.0,30.21,NNE,33,2.0,3.0,79,0.00,,,0.00,Meteo,2013-04-10 11:39:00,
2013-04-10 06:44:00,29.0,23.0,30.21,NNE,30,1.0,2.0,78,0.00,,,0.00,Meteo,2013-04-10 11:44:00,
2013-04-10 06:49:00,29.0,23.0,30.21,NNE,15,2.0,3.0,78,0.00,,,0.00,Meteo,2013-04-10 11:49:00,
2013-04-10 06:54:00,29.0,23.0,30.21,North,6,1.0,2.0,77,0.00,,,0.00,Meteo,2013-04-10 11:54:00,
2013-04-10 06:59:00,29.0,23.0,30.20,NE,56,2.0,4.0,78,0.00,,,0.00,Meteo,2013-04-10 11:59:00,
2013-04-10 07:04:00,29.0,23.0,30.20,NNE,12,2.0,3.0,78,0.00,,,0.00,Meteo,2013-04-10 12:04:00,
2013-04-10 07:09:00,29.0,23.0,30.19,NNE,31,1.0,2.0,78,0.00,,,0.00,Meteo,2013-04-10 12:09:00,
2013-04-10 07:14:00,29.0,23.0,30.19,ENE,60,2.0,3.0,78,0.00,,,0.00,Meteo,2013-04-10 12:14:00,
2013-04-10 07:19:00,29.0,23.0,30.18,NE,45,2.0,3.0,78,0.00,,,0.00,Meteo,2013-04-10 12:19:00,
2013-04-10 07:24:00,29.0,23.0,30.17,ENE,58,3.0,5.0,78,0.00,,,0.00,Meteo,2013-04-10 12:24:00,
2013-04-10 07:29:00,29.0,23.0,30.16,ENE,66,3.0,5.0,78,0.00,,,0.00,Meteo,2013-04-10 12:29:00,
2013-04-10 07:34:00,30.0,24.0,30.16,ENE,61,3.0,4.0,78,0.00,,,0.00,Meteo,2013-04-10 12:34:00,
2013-04-10 07:39:00,30.0,24.0,30.16,NE,51,4.0,6.0,78,0.00,,,0.00,Meteo,2013-04-10 12:39:00,
2013-04-10 07:44:00,30.0,24.0,30.16,NE,34,3.0,6.0,77,0.00,,,0.00,Meteo,2013-04-10 12:44:00,
2013-04-10 07:49:00,31.0,25.0,30.17,NE,48,2.0,3.0,77,0.00,,,0.00,Meteo,2013-04-10 12:49:00,
2013-04-10 07:54:00,31.0,24.0,30.16,NE,46,2.0,4.0,76,0.00,,,0.00,Meteo,2013-04-10 12:54:00,
2013-04-10 07:59:00,32.0,25.0,30.15,NE,54,3.0,5.0,75,0.00,,,0.00,Meteo,2013-04-10 12:59:00,
2013-04-10 08:04:00,33.0,25.0,30.15,NE,50,4.0,5.0,72,0.00,,,0.00,Meteo,2013-04-10 13:04:00,
2013-04-10 08:09:00,33.0,24.0,30.15,ENE,70,5.0,11.0,70,0.00,,,0.00,Meteo,2013-04-10 13:09:00,
2013-04-10 08:14:00,34.0,25.0,30.14,NE,49,5.0,7.0,70,0.00,,,0.00,Meteo,2013-04-10 13:14:00,
2013-04-10 08:19:00,34.0,25.0,30.14,NE,55,4.0,5.0,68,0.00,,,0.00,Meteo,2013-04-10 13:19:00,
2013-04-10 08:24:00,34.0,25.0,30.14,NE,45,3.0,8.0,68,0.00,,,0.00,Meteo,2013-04-10 13:24:00,
2013-04-10 08:29:00,35.0,26.0,30.15,NE,44,4.0,5.0,68,0.00,,,0.00,Meteo,2013-04-10 13:29:00,
2013-04-10 08:34:00,35.0,25.0,30.15,ENE,60,5.0,8.0,66,0.00,,,0.00,Meteo,2013-04-10 13:34:00,
2013-04-10 08:39:00,35.0,25.0,30.15,ENE,60,4.0,6.0,66,0.00,,,0.00,Meteo,2013-04-10 13:39:00,
2013-04-10 08:44:00,35.0,25.0,30.16,NNE,14,3.0,6.0,66,0.00,,,0.00,Meteo,2013-04-10 13:44:00,
2013-04-10 08:49:00,35.0,25.0,30.15,ENE,63,7.0,13.0,67,0.00,,,0.00,Meteo,2013-04-10 13:49:00,
2013-04-10 08:54:00,35.0,25.0,30.16,NE,39,7.0,10.0,66,0.00,,,0.00,Meteo,2013-04-10 13:54:00,
2013-04-10 08:59:00,35.0,25.0,30.17,NE,40,4.0,6.0,67,0.00,,,0.00,Meteo,2013-04-10 13:59:00,
2013-04-10 09:04:00,34.0,25.0,30.16,NE,44,6.0,10.0,68,0.00,,,0.00,Meteo,2013-04-10 14:04:00,
2013-04-10 09:09:00,34.0,25.0,30.16,NNE,32,5.0,7.0,69,0.00,,,0.00,Meteo,2013-04-10 14:09:00,
2013-04-10 09:14:00,35.0,26.0,30.17,NE,40,7.0,12.0,70,0.00,,,0.00,Meteo,2013-04-10 14:14:00,
2013-04-10 09:19:00,35.0,26.0,30.17,NNE,15,4.0,7.0,69,0.00,,,0.00,Meteo,2013-04-10 14:19:00,
2013-04-10 09:24:00,35.0,26.0,30.16,NE,37,6.0,8.0,70,0.00,,,0.00,Meteo,2013-04-10 14:24:00,
2013-04-10 09:30:00,35.0,26.0,30.16,NE,51,7.0,9.0,69,0.00,,,0.00,Meteo,2013-04-10 14:30:00,
2013-04-10 09:35:00,35.0,26.0,30.16,ENE,60,8.0,12.0,68,0.00,,,0.00,Meteo,2013-04-10 14:35:00,
2013-04-10 09:40:00,35.0,26.0,30.17,NE,47,4.0,12.0,68,0.00,,,0.00,Meteo,2013-04-10 14:40:00,
2013-04-10 09:45:00,35.0,26.0,30.17,NNE,33,4.0,7.0,68,0.00,,,0.00,Meteo,2013-04-10 14:45:00,
2013-04-10 09:50:00,36.0,26.0,30.17,NE,44,5.0,7.0,67,0.00,,,0.00,Meteo,2013-04-10 14:50:00,
2013-04-10 09:55:00,36.0,26.0,30.18,NE,45,3.0,6.0,67,0.00,,,0.00,Meteo,2013-04-10 14:55:00,
2013-04-10 10:00:00,36.0,26.0,30.19,ENE,73,8.0,12.0,66,0.00,,,0.00,Meteo,2013-04-10 15:00:00,
2013-04-10 10:05:00,37.0,26.0,30.20,NNE,31,4.0,8.0,65,0.00,,,0.00,Meteo,2013-04-10 15:05:00,
2013-04-10 10:10:00,37.0,26.0,30.20,NE,47,6.0,10.0,63,0.00,,,0.00,Meteo,2013-04-10 15:10:00,
2013-04-10 10:15:00,36.0,25.0,30.20,North,11,7.0,8.0,64,0.00,,,0.00,Meteo,2013-04-10 15:15:00,
2013-04-10 10:20:00,36.0,25.0,30.20,NNE,18,5.0,8.0,65,0.00,,,0.00,Meteo,2013-04-10 15:20:00,
2013-04-10 10:25:00,36.0,25.0,30.19,North,6,6.0,8.0,65,0.00,,,0.00,Meteo,2013-04-10 15:25:00,
2013-04-10 10:30:00,36.0,26.0,30.19,NNE,28,6.0,8.0,66,0.00,,,0.00,Meteo,2013-04-10 15:30:00,
2013-04-10 10:35:00,36.0,25.0,30.19,North,4,6.0,9.0,65,0.00,,,0.00,Meteo,2013-04-10 15:35:00,
2013-04-10 10:40:00,36.0,25.0,30.19,NNE,30,7.0,9.0,65,0.00,,,0.00,Meteo,2013-04-10 15:40:00,
2013-04-10 10:45:00,36.0,25.0,30.19,NE,36,6.0,7.0,65,0.00,,,0.00,Meteo,2013-04-10 15:45:00,
2013-04-10 10:50:00,36.0,25.0,30.19,NE,43,6.0,11.0,65,0.00,,,0.00,Meteo,2013-04-10 15:50:00,
2013-04-10 10:55:00,37.0,26.0,30.19,NE,41,5.0,9.0,65,0.00,,,0.00,Meteo,2013-04-10 15:55:00,
2013-04-10 11:00:00,36.0,25.0,30.19,NNE,22,7.0,12.0,65,0.00,,,0.00,Meteo,2013-04-10 16:00:00,
2013-04-10 11:05:00,36.0,26.0,30.19,NNE,32,5.0,8.0,66,0.00,,,0.00,Meteo,2013-04-10 16:05:00,
2013-04-10 11:10:00,36.0,26.0,30.18,NNE,32,6.0,9.0,66,0.00,,,0.00,Meteo,2013-04-10 16:10:00,
2013-04-10 11:15:00,36.0,26.0,30.18,NE,42,8.0,11.0,66,0.00,,,0.00,Meteo,2013-04-10 16:15:00,
2013-04-10 11:20:00,36.0,26.0,30.19,NNE,26,5.0,7.0,67,0.00,,,0.00,Meteo,2013-04-10 16:20:00,
2013-04-10 11:25:00,36.0,26.0,30.19,NE,42,6.0,10.0,66,0.00,,,0.00,Meteo,2013-04-10 16:25:00,
2013-04-10 11:30:00,37.0,27.0,30.19,NE,51,6.0,9.0,66,0.00,,,0.00,Meteo,2013-04-10 16:30:00,
2013-04-10 11:35:00,37.0,26.0,30.19,NE,38,8.0,11.0,64,0.00,,,0.00,Meteo,2013-04-10 16:35:00,
2013-04-10 11:40:00,37.0,26.0,30.19,NNE,12,6.0,9.0,65,0.00,,,0.00,Meteo,2013-04-10 16:40:00,
2013-04-10 11:45:00,37.0,27.0,30.20,NNE,28,5.0,9.0,66,0.00,,,0.00,Meteo,2013-04-10 16:45:00,
2013-04-10 11:50:00,37.0,27.0,30.20,NE,46,4.0,10.0,66,0.00,,,0.00,Meteo,2013-04-10 16:50:00,
2013-04-10 11:55:00,37.0,26.0,30.20,North,10,7.0,10.0,65,0.00,,,0.00,Meteo,2013-04-10 16:55:00,
2013-04-10 12:00:00,36.0,26.0,30.20,NNE,21,6.0,8.0,66,0.00,,,0.00,Meteo,2013-04-10 17:00:00,
2013-04-10 12:05:00,36.0,25.0,30.20,NE,40,6.0,10.0,65,0.00,,,0.00,Meteo,2013-04-10 17:05:00,
2013-04-10 12:10:00,36.0,26.0,30.20,North,10,6.0,8.0,66,0.00,,,0.00,Meteo,2013-04-10 17:10:00,
2013-04-10 12:15:00,36.0,26.0,30.20,NE,42,6.0,13.0,67,0.00,,,0.00,Meteo,2013-04-10 17:15:00,
2013-04-10 12:20:00,36.0,25.0,30.20,NNE,18,5.0,9.0,65,0.00,,,0.00,Meteo,2013-04-10 17:20:00,
2013-04-10 12:25:00,36.0,26.0,30.19,NE,40,6.0,8.0,66,0.00,,,0.00,Meteo,2013-04-10 17:25:00,
2013-04-10 12:30:00,36.0,26.0,30.20,NNE,24,5.0,12.0,67,0.00,,,0.00,Meteo,2013-04-10 17:30:00,
2013-04-10 12:35:00,36.0,25.0,30.19,NE,39,4.0,8.0,65,0.00,,,0.00,Meteo,2013-04-10 17:35:00,
2013-04-10 12:40:00,36.0,25.0,30.19,NNE,33,6.0,9.0,64,0.00,,,0.00,Meteo,2013-04-10 17:40:00,
2013-04-10 12:45:00,36.0,26.0,30.18,NNE,28,4.0,7.0,66,0.00,,,0.00,Meteo,2013-04-10 17:45:00,
2013-04-10 12:50:00,36.0,25.0,30.18,NE,49,6.0,8.0,63,0.00,,,0.00,Meteo,2013-04-10 17:50:00,
2013-04-10 12:55:00,36.0,25.0,30.18,NE,46,7.0,10.0,64,0.00,,,0.00,Meteo,2013-04-10 17:55:00,
2013-04-10 13:00:00,36.0,24.0,30.18,NE,45,8.0,12.0,62,0.00,,,0.00,Meteo,2013-04-10 18:00:00,
2013-04-10 13:05:00,36.0,24.0,30.18,NE,40,5.0,11.0,62,0.00,,,0.00,Meteo,2013-04-10 18:05:00,
2013-04-10 13:10:00,36.0,24.0,30.18,NE,38,7.0,10.0,62,0.00,,,0.00,Meteo,2013-04-10 18:10:00,
2013-04-10 13:15:00,36.0,25.0,30.18,NNE,30,7.0,13.0,63,0.00,,,0.00,Meteo,2013-04-10 18:15:00,
2013-04-10 13:20:00,36.0,25.0,30.18,NE,35,7.0,11.0,63,0.00,,,0.00,Meteo,2013-04-10 18:20:00,
2013-04-10 13:25:00,36.0,25.0,30.17,NE,46,8.0,11.0,63,0.00,,,0.00,Meteo,2013-04-10 18:25:00,
2013-04-10 13:30:00,37.0,25.0,30.18,NE,38,5.0,7.0,62,0.00,,,0.00,Meteo,2013-04-10 18:30:00,
2013-04-10 13:35:00,36.0,24.0,30.17,NNE,24,8.0,11.0,62,0.00,,,0.00,Meteo,2013-04-10 18:35:00,
2013-04-10 13:40:00,37.0,26.0,30.17,NE,38,8.0,10.0,63,0.00,,,0.00,Meteo,2013-04-10 18:40:00,
2013-04-10 13:45:00,37.0,25.0,30.17,NE,35,5.0,8.0,62,0.00,,,0.00,Meteo,2013-04-10 18:45:00,
2013-04-10 13:50:00,37.0,26.0,30.17,North,10,5.0,7.0,65,0.00,,,0.00,Meteo,2013-04-10 18:50:00,
2013-04-10 13:55:00,36.0,25.0,30.17,NNE,15,5.0,8.0,65,0.00,,,0.00,Meteo,2013-04-10 18:55:00,
2013-04-10 14:00:00,36.0,26.0,30.17,NNE,14,5.0,7.0,66,0.00,,,0.00,Meteo,2013-04-10 19:00:00,
2013-04-10 14:05:00,36.0,25.0,30.17,NNE,31,6.0,9.0,64,0.00,,,0.00,Meteo,2013-04-10 19:05:00,
2013-04-10 14:10:00,36.0,25.0,30.17,NE,45,6.0,9.0,64,0.00,,,0.00,Meteo,2013-04-10 19:10:00,
2013-04-10 14:15:00,36.0,25.0,30.18,NE,53,8.0,13.0,63,0.00,,,0.00,Meteo,2013-04-10 19:15:00,
2013-04-10 14:20:00,36.0,25.0,30.17,NNE,29,5.0,8.0,63,0.00,,,0.00,Meteo,2013-04-10 19:20:00,
2013-04-10 14:25:00,36.0,25.0,30.18,NE,34,4.0,5.0,64,0.00,,,0.00,Meteo,2013-04-10 19:25:00,
2013-04-10 14:30:00,36.0,25.0,30.17,NE,42,8.0,11.0,63,0.00,,,0.00,Meteo,2013-04-10 19:30:00,
2013-04-10 14:35:00,36.0,25.0,30.17,NE,34,4.0,5.0,63,0.00,,,0.00,Meteo,2013-04-10 19:35:00,
2013-04-10 14:40:00,36.0,25.0,30.16,NNE,27,7.0,12.0,63,0.00,,,0.00,Meteo,2013-04-10 19:40:00,
2013-04-10 14:45:00,36.0,25.0,30.16,NNE,20,4.0,8.0,64,0.00,,,0.00,Meteo,2013-04-10 19:45:00,
2013-04-10 14:50:00,36.0,25.0,30.16,NE,47,5.0,8.0,64,0.00,,,0.00,Meteo,2013-04-10 19:50:00,
2013-04-10 14:55:00,36.0,25.0,30.16,NE,47,8.0,12.0,63,0.00,,,0.00,Meteo,2013-04-10 19:55:00,
2013-04-10 15:00:00,35.0,24.0,30.16,NE,47,6.0,11.0,64,0.00,,,0.00,Meteo,2013-04-10 20:00:00,
2013-04-10 15:05:00,35.0,24.0,30.17,North,9,4.0,8.0,64,0.00,,,0.00,Meteo,2013-04-10 20:05:00,
2013-04-10 15:10:00,36.0,25.0,30.17,NE,49,6.0,9.0,64,0.00,,,0.00,Meteo,2013-04-10 20:10:00,
2013-04-10 15:15:00,35.0,24.0,30.17,NE,47,7.0,11.0,63,0.00,,,0.00,Meteo,2013-04-10 20:15:00,
2013-04-10 15:20:00,35.0,24.0,30.16,NE,48,3.0,6.0,63,0.00,,,0.00,Meteo,2013-04-10 20:20:00,
2013-04-10 15:25:00,35.0,24.0,30.16,NNE,19,5.0,6.0,64,0.00,,,0.00,Meteo,2013-04-10 20:25:00,
2013-04-10 15:30:00,35.0,23.0,30.17,NNE,26,3.0,5.0,62,0.00,,,0.00,Meteo,2013-04-10 20:30:00,
2013-04-10 15:35:00,35.0,23.0,30.16,NE,40,5.0,7.0,60,0.00,,,0.00,Meteo,2013-04-10 20:35:00,
2013-04-10 15:40:00,35.0,23.0,30.16,NNE,30,5.0,7.0,60,0.00,,,0.00,Meteo,2013-04-10 20:40:00,
2013-04-10 15:46:00,35.0,23.0,30.17,NNE,29,5.0,6.0,60,0.00,,,0.00,Meteo,2013-04-10 20:46:00,
2013-04-10 15:51:00,35.0,23.0,30.16,NNE,26,5.0,8.0,60,0.00,,,0.00,Meteo,2013-04-10 20:51:00,
2013-04-10 15:56:00,35.0,22.0,30.17,NE,38,6.0,8.0,59,0.00,,,0.00,Meteo,2013-04-10 20:56:00,
2013-04-10 16:01:00,35.0,22.0,30.17,NNE,14,4.0,9.0,59,0.00,,,0.00,Meteo,2013-04-10 21:01:00,
2013-04-10 16:06:00,35.0,22.0,30.16,NNE,14,4.0,9.0,59,0.00,,,0.00,Meteo,2013-04-10 21:06:00,
2013-04-10 16:11:00,35.0,22.0,30.17,NE,48,5.0,7.0,59,0.00,,,0.00,Meteo,2013-04-10 21:11:00,
2013-04-10 16:16:00,35.0,22.0,30.16,NNE,20,3.0,5.0,59,0.00,,,0.00,Meteo,2013-04-10 21:16:00,
2013-04-10 16:21:00,35.0,22.0,30.16,NE,42,4.0,9.0,58,0.00,,,0.00,Meteo,2013-04-10 21:21:00,
2013-04-10 16:26:00,35.0,21.0,30.15,ENE,73,7.0,11.0,56,0.00,,,0.00,Meteo,2013-04-10 21:26:00,
2013-04-10 16:31:00,35.0,20.0,30.15,NE,46,4.0,6.0,54,0.00,,,0.00,Meteo,2013-04-10 21:31:00,
2013-04-10 16:36:00,36.0,21.0,30.16,NE,54,3.0,7.0,54,0.00,,,0.00,Meteo,2013-04-10 21:36:00,
2013-04-10 16:41:00,36.0,20.0,30.16,NNE,21,6.0,9.0,52,0.00,,,0.00,Meteo,2013-04-10 21:41:00,
2013-04-10 16:46:00,36.0,20.0,30.16,ENE,72,4.0,6.0,51,0.00,,,0.00,Meteo,2013-04-10 21:46:00,
2013-04-10 16:51:00,36.0,18.0,30.16,ENE,63,7.0,11.0,48,0.00,,,0.00,Meteo,2013-04-10 21:51:00,
2013-04-10 16:56:00,36.0,18.0,30.17,ENE,61,6.0,7.0,47,0.00,,,0.00,Meteo,2013-04-10 21:56:00,
2013-04-10 17:01:00,36.0,17.0,30.16,ENE,77,6.0,10.0,46,0.00,,,0.00,Meteo,2013-04-10 22:01:00,
2013-04-10 17:06:00,36.0,17.0,30.16,NE,39,5.0,8.0,46,0.00,,,0.00,Meteo,2013-04-10 22:06:00,
2013-04-10 17:11:00,36.0,17.0,30.16,NNE,31,5.0,7.0,45,0.00,,,0.00,Meteo,2013-04-10 22:11:00,
2013-04-10 17:16:00,36.0,17.0,30.16,NE,52,7.0,11.0,46,0.00,,,0.00,Meteo,2013-04-10 22:16:00,
2013-04-10 17:21:00,36.0,18.0,30.16,ENE,75,6.0,13.0,47,0.00,,,0.00,Meteo,2013-04-10 22:21:00,
2013-04-10 17:26:00,36.0,18.0,30.15,ENE,68,5.0,8.0,48,0.00,,,0.00,Meteo,2013-04-10 22:26:00,
2013-04-10 17:31:00,36.0,18.0,30.14,NNE,25,4.0,6.0,48,0.00,,,0.00,Meteo,2013-04-10 22:31:00,
2013-04-10 17:36:00,36.0,18.0,30.14,ENE,61,7.0,12.0,48,0.00,,,0.00,Meteo,2013-04-10 22:36:00,
2013-04-10 17:41:00,36.0,19.0,30.14,NE,51,6.0,10.0,49,0.00,,,0.00,Meteo,2013-04-10 22:41:00,
2013-04-10 17:46:00,36.0,19.0,30.14,ENE,71,7.0,11.0,49,0.00,,,0.00,Meteo,2013-04-10 22:46:00,
2013-04-10 17:51:00,36.0,19.0,30.14,ENE,58,4.0,7.0,50,0.00,,,0.00,Meteo,2013-04-10 22:51:00,
2013-04-10 17:56:00,36.0,19.0,30.14,NE,56,4.0,8.0,50,0.00,,,0.00,Meteo,2013-04-10 22:56:00,
2013-04-10 18:01:00,36.0,19.0,30.13,ENE,68,7.0,10.0,50,0.00,,,0.00,Meteo,2013-04-10 23:01:00,
2013-04-10 18:06:00,36.0,20.0,30.12,ENE,68,6.0,10.0,51,0.00,,,0.00,Meteo,2013-04-10 23:06:00,
2013-04-10 18:11:00,36.0,19.0,30.12,ENE,72,10.0,17.0,50,0.00,,,0.00,Meteo,2013-04-10 23:11:00,
2013-04-10 18:16:00,35.0,18.0,30.12,ENE,73,5.0,7.0,50,0.00,,,0.00,Meteo,2013-04-10 23:16:00,
2013-04-10 18:21:00,35.0,19.0,30.12,ENE,70,4.0,8.0,52,0.00,,,0.00,Meteo,2013-04-10 23:21:00,
2013-04-10 18:27:00,35.0,19.0,30.12,ENE,78,6.0,8.0,52,0.00,,,0.00,Meteo,2013-04-10 23:27:00,
2013-04-10 18:32:00,35.0,19.0,30.12,ENE,63,6.0,11.0,52,0.00,,,0.00,Meteo,2013-04-10 23:32:00,
2013-04-10 18:37:00,35.0,19.0,30.12,ENE,73,5.0,9.0,52,0.00,,,0.00,Meteo,2013-04-10 23:37:00,
2013-04-10 18:42:00,35.0,20.0,30.11,ENE,76,7.0,10.0,53,0.00,,,0.00,Meteo,2013-04-10 23:42:00,
2013-04-10 18:47:00,35.0,19.0,30.11,ENE,64,8.0,14.0,52,0.00,,,0.00,Meteo,2013-04-10 23:47:00,
2013-04-10 18:52:00,35.0,20.0,30.10,East,83,6.0,11.0,53,0.00,,,0.00,Meteo,2013-04-10 23:52:00,
2013-04-10 18:57:00,35.0,19.0,30.09,ENE,64,6.0,9.0,51,0.00,,,0.00,Meteo,2013-04-10 23:57:00,
2013-04-10 19:02:00,35.0,19.0,30.10,ENE,63,6.0,8.0,51,0.00,,,0.00,Meteo,2013-04-11 00:02:00,
2013-04-10 19:07:00,35.0,18.0,30.10,ENE,65,5.0,10.0,50,0.00,,,0.00,Meteo,2013-04-11 00:07:00,
2013-04-10 19:13:00,35.0,19.0,30.10,ENE,62,6.0,9.0,52,0.00,,,0.00,Meteo,2013-04-11 00:13:00,
2013-04-10 19:18:00,35.0,19.0,30.10,East,86,6.0,9.0,52,0.00,,,0.00,Meteo,2013-04-11 00:18:00,
2013-04-10 19:23:00,35.0,20.0,30.09,East,79,8.0,15.0,53,0.00,,,0.00,Meteo,2013-04-11 00:23:00,
2013-04-10 19:28:00,35.0,20.0,30.09,ENE,62,5.0,9.0,53,0.00,,,0.00,Meteo,2013-04-11 00:28:00,
2013-04-10 19:33:00,35.0,20.0,30.10,NE,56,6.0,9.0,54,0.00,,,0.00,Meteo,2013-04-11 00:33:00,
2013-04-10 19:38:00,35.0,20.0,30.10,East,91,4.0,7.0,55,0.00,,,0.00,Meteo,2013-04-11 00:38:00,
2013-04-10 19:43:00,35.0,21.0,30.10,ENE,74,6.0,10.0,56,0.00,,,0.00,Meteo,2013-04-11 00:43:00,
2013-04-10 19:48:00,35.0,21.0,30.10,East,84,6.0,9.0,57,0.00,,,0.00,Meteo,2013-04-11 00:48:00,
2013-04-10 19:53:00,35.0,21.0,30.11,East,84,5.0,8.0,57,0.00,,,0.00,Meteo,2013-04-11 00:53:00,
2013-04-10 19:58:00,35.0,22.0,30.11,ENE,77,6.0,8.0,58,0.00,,,0.00,Meteo,2013-04-11 00:58:00,
2013-04-10 20:03:00,35.0,22.0,30.11,NE,50,5.0,8.0,58,0.00,,,0.00,Meteo,2013-04-11 01:03:00,
2013-04-10 20:08:00,35.0,22.0,30.11,NE,55,4.0,7.0,58,0.00,,,0.00,Meteo,2013-04-11 01:08:00,
2013-04-10 20:13:00,35.0,22.0,30.11,ENE,74,6.0,9.0,58,0.00,,,0.00,Meteo,2013-04-11 01:13:00,
2013-04-10 20:18:00,35.0,21.0,30.11,ENE,71,5.0,9.0,57,0.00,,,0.00,Meteo,2013-04-11 01:18:00,
2013-04-10 20:23:00,35.0,22.0,30.12,ENE,75,7.0,12.0,58,0.00,,,0.00,Meteo,2013-04-11 01:23:00,
2013-04-10 20:28:00,35.0,21.0,30.12,ENE,63,4.0,6.0,57,0.00,,,0.00,Meteo,2013-04-11 01:28:00,
2013-04-10 20:33:00,35.0,21.0,30.11,East,85,4.0,6.0,57,0.00,,,0.00,Meteo,2013-04-11 01:33:00,
2013-04-10 20:38:00,35.0,21.0,30.10,ENE,73,4.0,6.0,57,0.00,,,0.00,Meteo,2013-04-11 01:38:00,
2013-04-10 20:43:00,35.0,21.0,30.10,ENE,57,3.0,6.0,56,0.00,,,0.00,Meteo,2013-04-11 01:43:00,
2013-04-10 20:49:00,35.0,21.0,30.10,NE,49,4.0,8.0,56,0.00,,,0.00,Meteo,2013-04-11 01:49:00,
2013-04-10 20:54:00,35.0,21.0,30.09,ENE,60,5.0,8.0,56,0.00,,,0.00,Meteo,2013-04-11 01:54:00,
2013-04-10 20:59:00,35.0,20.0,30.09,NE,52,6.0,9.0,55,0.00,,,0.00,Meteo,2013-04-11 01:59:00,
2013-04-10 21:04:00,35.0,20.0,30.09,NE,53,5.0,7.0,55,0.00,,,0.00,Meteo,2013-04-11 02:04:00,
2013-04-10 21:09:00,35.0,21.0,30.09,NE,34,3.0,4.0,56,0.00,,,0.00,Meteo,2013-04-11 02:09:00,
2013-04-10 21:14:00,34.0,21.0,30.10,NNE,33,4.0,6.0,58,0.00,,,0.00,Meteo,2013-04-11 02:14:00,
2013-04-10 21:19:00,34.0,21.0,30.10,NE,49,3.0,5.0,58,0.00,,,0.00,Meteo,2013-04-11 02:19:00,
2013-04-10 21:24:00,34.0,22.0,30.10,NE,42,4.0,7.0,60,0.00,,,0.00,Meteo,2013-04-11 02:24:00,
2013-04-10 21:29:00,34.0,22.0,30.10,NE,40,5.0,7.0,62,0.00,,,0.00,Meteo,2013-04-11 02:29:00,
2013-04-10 21:34:00,34.0,22.0,30.10,NE,35,6.0,10.0,62,0.00,,,0.00,Meteo,2013-04-11 02:34:00,
2013-04-10 21:39:00,34.0,22.0,30.10,NE,40,5.0,9.0,61,0.00,,,0.00,Meteo,2013-04-11 02:39:00,
2013-04-10 21:44:00,34.0,22.0,30.09,ENE,62,4.0,7.0,61,0.00,,,0.00,Meteo,2013-04-11 02:44:00,
2013-04-10 21:49:00,34.0,22.0,30.09,NE,42,3.0,6.0,61,0.00,,,0.00,Meteo,2013-04-11 02:49:00,
2013-04-10 21:54:00,34.0,22.0,30.09,NE,51,6.0,10.0,60,0.00,,,0.00,Meteo,2013-04-11 02:54:00,
2013-04-10 21:59:00,34.0,22.0,30.09,ENE,66,6.0,11.0,61,0.00,,,0.00,Meteo,2013-04-11 02:59:00,
2013-04-10 22:04:00,34.0,22.0,30.09,NE,56,5.0,9.0,62,0.00,,,0.00,Meteo,2013-04-11 03:04:00,
2013-04-10 22:09:00,34.0,22.0,30.09,NE,39,3.0,6.0,62,0.00,,,0.00,Meteo,2013-04-11 03:09:00,
2013-04-10 22:14:00,33.0,21.0,30.10,ENE,63,4.0,6.0,62,0.00,,,0.00,Meteo,2013-04-11 03:14:00,
2013-04-10 22:19:00,33.0,22.0,30.10,ENE,62,8.0,14.0,63,0.00,,,0.00,Meteo,2013-04-11 03:19:00,
2013-04-10 22:24:00,34.0,23.0,30.11,ENE,69,5.0,10.0,63,0.00,,,0.00,Meteo,2013-04-11 03:24:00,
2013-04-10 22:29:00,33.0,22.0,30.10,ENE,59,6.0,11.0,63,0.00,,,0.00,Meteo,2013-04-11 03:29:00,
2013-04-10 22:34:00,34.0,23.0,30.11,ENE,73,4.0,7.0,64,0.00,,,0.00,Meteo,2013-04-11 03:34:00,
2013-04-10 22:39:00,34.0,23.0,30.11,ENE,69,4.0,5.0,63,0.00,,,0.00,Meteo,2013-04-11 03:39:00,
2013-04-10 22:44:00,34.0,23.0,30.11,ENE,66,8.0,11.0,63,0.00,,,0.00,Meteo,2013-04-11 03:44:00,
2013-04-10 22:49:00,34.0,23.0,30.11,ENE,66,6.0,11.0,63,0.00,,,0.00,Meteo,2013-04-11 03:49:00,
2013-04-10 22:54:00,34.0,23.0,30.10,ENE,64,3.0,6.0,63,0.00,,,0.00,Meteo,2013-04-11 03:54:00,
2013-04-10 22:59:00,33.0,21.0,30.10,ENE,58,7.0,12.0,61,0.00,,,0.00,Meteo,2013-04-11 03:59:00,
2013-04-10 23:00:00,34.0,22.0,30.10,ENE,60,6.0,10.0,61,0.00,,,0.00,Meteo,2013-04-11 04:00:00,
2013-04-10 23:05:00,34.0,22.0,30.10,ENE,68,5.0,8.0,60,0.00,,,0.00,Meteo,2013-04-11 04:05:00,
2013-04-10 23:10:00,33.0,21.0,30.10,ENE,68,5.0,10.0,60,0.00,,,0.00,Meteo,2013-04-11 04:10:00,
2013-04-10 23:13:00,33.0,20.0,30.09,ENE,62,8.0,12.0,58,0.00,,,0.00,Meteo,2013-04-11 04:13:00,
2013-04-10 23:16:00,34.0,21.0,30.10,ENE,66,9.0,15.0,59,0.00,,,0.00,Meteo,2013-04-11 04:16:00,
2013-04-10 23:21:00,34.0,21.0,30.10,ENE,59,6.0,8.0,59,0.00,,,0.00,Meteo,2013-04-11 04:21:00,
2013-04-10 23:26:00,34.0,21.0,30.11,ENE,57,6.0,10.0,59,0.00,,,0.00,Meteo,2013-04-11 04:26:00,
2013-04-10 23:31:00,33.0,20.0,30.10,ENE,70,8.0,11.0,59,0.00,,,0.00,Meteo,2013-04-11 04:31:00,
2013-04-10 23:36:00,33.0,20.0,30.09,ENE,73,7.0,10.0,59,0.00,,,0.00,Meteo,2013-04-11 04:36:00,
2013-04-10 23:41:00,33.0,21.0,30.09,ENE,70,7.0,11.0,60,0.00,,,0.00,Meteo,2013-04-11 04:41:00,
2013-04-10 23:46:00,33.0,21.0,30.08,ENE,63,7.0,8.0,60,0.00,,,0.00,Meteo,2013-04-11 04:46:00,
2013-04-10 23:51:00,33.0,21.0,30.09,ENE,77,5.0,9.0,60,0.00,,,0.00,Meteo,2013-04-11 04:51:00,
2013-04-10 23:56:00,33.0,21.0,30.08,ENE,64,7.0,12.0,60,0.00,,,0.00,Meteo,2013-04-11 04:56:00,